FW6247 Weather Reports


Display with metric or nautical units.
time (UTC)temp
F
wind
direction
speed
MPH
gust
MPH
rain 1hr
in
rain 24hr
in
rain mn
in
humidity
%
barometer
mb
20260503043033 66 196 3.0 6.0 0.00 0.00 0.00 51 1015.5
20260503041537 66 171 5.0 8.0 0.00 0.00 0.00 51 1015.5
20260503040107 67 156 3.0 9.0 0.00 0.00 0.00 51 1015.4
20260503034532 67 163 5.0 9.0 0.00 0.00 0.00 52 1015.2
20260503031530 65 161 4.0 8.0 0.00 0.00 0.00 63 1014.6
20260503030035 65 127 0.0 4.0 0.00 0.00 0.00 65 1014.3
20260503024528 68 337 0.0 0.0 0.00 0.00 0.00 62 1014.0
20260503021538 71 50 0.0 2.0 0.00 0.00 0.00 54 1013.8
20260503020031 72 360 0.0 0.0 0.00 0.00 0.00 49 1013.5
20260503011608 77 346 0.0 4.0 0.00 0.00 0.00 41 1013.5
20260503010105 78 351 1.0 5.0 0.00 0.00 0.00 37 1013.5
20260503004529 78 27 2.0 7.0 0.00 0.00 0.00 37 1013.5
20260503003032 78 28 2.0 7.0 0.00 0.00 0.00 38 1013.5
20260503000037 79 22 1.0 6.0 0.00 0.00 0.00 39 1013.8
20260502234607 79 14 2.0 8.0 0.00 0.00 0.00 39 1013.9
20260502233104 79 26 2.0 7.0 0.00 0.00 0.00 39 1014.0
20260502231532 78 12 2.0 7.0 0.00 0.00 0.00 39 1014.1
20260502230106 78 9 1.0 5.0 0.00 0.00 0.00 40 1014.3
20260502224531 78 11 3.0 9.0 0.00 0.00 0.00 40 1014.5
20260502223031 78 354 2.0 9.0 0.00 0.00 0.00 42 1014.7
20260502221529 77 341 2.0 8.0 0.00 0.00 0.00 42 1015.0
20260502220033 77 355 2.0 9.0 0.00 0.00 0.00 43 1015.2
20260502214530 76 339 1.0 10.0 0.00 0.00 0.00 44 1015.2
20260502213031 75 5 2.0 7.0 0.00 0.00 0.00 44 1015.4
20260502211530 75 34 2.0 8.0 0.00 0.00 0.00 45 1015.6
20260502210107 74 22 1.0 5.0 0.00 0.00 0.00 46 1015.8
20260502204530 74 25 1.0 6.0 0.00 0.00 0.00 46 1015.9
20260502201530 77 34 1.0 6.0 0.00 0.00 0.00 46 1016.1
20260502200031 77 350 1.0 6.0 0.00 0.00 0.00 47 1016.2
20260502193105 76 32 1.0 6.0 0.00 0.00 0.00 43 1016.4
20260502191529 75 160 1.0 3.0 0.00 0.00 0.00 48 1016.5
20260502190035 71 305 1.0 4.0 0.00 0.00 0.00 54 1016.8
20260502184532 69 186 1.0 6.0 0.00 0.00 0.00 61 1016.9
20260502183031 68 265 1.0 4.0 0.00 0.00 0.00 65 1016.9
20260502181535 66 226 1.0 4.0 0.00 0.00 0.00 69 1016.8
20260502170104 58 22 1.0 4.0 0.00 0.00 0.00 79 1016.8
20260502163030 59 105 0.0 4.0 0.00 0.00 0.00 81 1017.3
20260502161531 57 247 0.0 0.0 0.00 0.00 0.00 84 1017.3
20260502160145 55 247 0.0 0.0 0.00 0.00 0.00 86 1017.0
20260502151537 54 176 2.0 4.0 0.00 0.00 0.00 85 1017.0
20260502123036 53 159 3.0 4.0 0.00 0.00 0.00 82 1015.6
20260502121607 53 157 2.0 5.0 0.00 0.00 0.00 82 1015.7
20260502114531 53 171 2.0 6.0 0.00 0.00 0.00 81 1015.7
20260502113037 53 168 1.0 6.0 0.00 0.00 0.00 80 1015.8
20260502111535 54 246 1.0 5.0 0.00 0.00 0.00 79 1015.8
20260502110037 54 318 1.0 5.0 0.00 0.00 0.00 78 1015.5
20260502104530 54 104 1.0 3.0 0.00 0.00 0.00 78 1015.8
20260502091530 55 165 0.0 4.0 0.00 0.00 0.00 77 1015.8
20260502071530 53 157 0.0 0.0 0.00 0.00 0.00 78 1016.3
20260502070030 52 158 0.0 3.0 0.00 0.00 0.00 79 1016.3
20260502064531 52 157 0.0 3.0 0.00 0.00 0.00 78 1016.3
20260502063028 52 157 0.0 1.0 0.00 0.00 0.00 75 1016.3
20260502061535 53 157 0.0 0.0 0.00 0.00 0.00 74 1016.0
20260502060032 54 157 0.0 0.0 0.00 0.00 0.00 72 1016.1
20260502053037 56 171 1.0 3.0 0.00 0.00 0.00 65 1016.0
20260502051531 60 78 0.0 2.0 0.00 0.00 0.00 61 1015.8
20260502050104 61 85 0.0 3.0 0.00 0.00 0.00 60 1015.9